WB9FQS Weather Reports


time (UTC)temp
F
wind
direction
speed
knots
gust
knots
rain 1hr
in
rain 24hr
in
rain mn
in
humidity
%
barometer
mb
20260505124520 47 330 0.0 3.5 0.00 0.44 0.00 75 1008.4
20260505123017 47 58 0.0 1.7 0.00 0.44 0.00 74 1008.2
20260505121512 48 333 0.9 2.6 0.00 0.44 0.00 72 1007.6
20260505120007 48 42 0.0 3.5 0.00 0.44 0.00 71 1006.9
20260505114503 48 359 0.0 3.5 0.00 0.44 0.00 72 1007.3
20260505113058 49 334 0.0 4.3 0.00 0.44 0.00 73 1006.4
20260505111555 49 73 0.0 2.6 0.00 0.44 0.00 70 1006.2
20260505110108 49 308 0.0 4.3 0.00 0.44 0.00 71 1006.0
20260505101535 50 51 0.0 5.2 0.00 0.44 0.00 71 1006.0
20260505100034 50 122 0.0 4.3 0.00 0.44 0.00 73 1005.9
20260505094528 50 58 0.0 1.7 0.00 0.44 0.00 75 1005.8
20260505093022 51 36 0.0 1.7 0.00 0.44 0.00 76 1005.4
20260505091517 51 53 0.0 0.9 0.00 0.44 0.00 80 1005.1
20260505090013 52 269 0.0 2.6 0.00 0.44 0.00 81 1004.6
20260505084508 52 98 0.0 0.9 0.00 0.44 0.00 35 1004.3
20260505083004 53 54 0.0 0.9 0.00 0.44 0.00 11 1004.3
20260505081606 53 98 0.0 0.0 0.00 0.44 0.00 2 1003.9
20260505080103 53 105 0.0 0.0 0.00 0.44 0.00 2 1003.6
20260505074551 54 105 0.0 0.0 0.00 0.44 0.00 1 1002.7
20260505073050 54 82 0.0 0.0 0.00 0.44 0.00 1 1002.9
20260505071541 54 81 0.0 0.0 0.00 0.44 0.00 3 1002.7
20260505070037 54 81 0.0 0.0 0.00 0.44 0.00 5 1002.5
20260505064541 54 81 0.0 0.0 0.00 0.44 0.00 7 1002.2
20260505063028 54 81 0.0 0.0 0.00 0.44 0.00 9 1002.0
20260505061526 54 81 0.0 0.0 0.00 0.44 0.00 15 1001.8
20260505060025 55 74 0.0 0.9 0.00 0.44 0.00 19 1001.3
20260505054540 55 75 0.0 0.0 0.00 0.44 0.00 26 1001.7
20260505053017 56 74 0.0 1.7 0.00 0.44 0.00 32 1001.5
20260505051514 56 73 0.0 0.0 0.00 0.44 0.00 27 1001.5
20260505041607 55 32 0.0 0.9 0.00 0.44 0.44 9 1001.4
20260505034606 56 106 0.0 0.0 0.03 0.44 0.44 20 1000.1
20260505033044 56 106 0.0 0.9 0.05 0.44 0.44 29 1000.0
20260505031539 56 89 0.0 0.9 0.05 0.44 0.44 29 1000.4
20260505030045 57 118 0.0 4.3 0.05 0.44 0.44 37 1000.7
20260505024530 57 50 0.0 4.3 0.03 0.41 0.41 41 1001.3
20260505023030 57 293 0.9 6.1 0.03 0.39 0.39 50 1000.6
20260505021523 58 300 0.0 3.5 0.05 0.39 0.39 53 1000.6
20260505020019 58 35 0.0 2.6 0.10 0.39 0.39 27 1000.4
20260505014519 58 127 0.0 2.6 0.09 0.38 0.38 10 1000.0
20260505013017 58 55 0.0 0.9 0.07 0.36 0.36 19 1000.6
20260505011507 58 74 0.0 0.9 0.05 0.34 0.34 39 1000.2
20260505010007 59 137 0.0 2.6 0.00 0.28 0.28 40 1000.2
20260505004520 60 16 0.0 1.7 0.15 0.28 0.28 26 999.4
20260505003004 59 141 0.0 0.9 0.28 0.28 0.28 42 998.8
20260505001504 60 154 0.0 5.2 0.28 0.28 0.28 52 997.9
20260505000003 60 127 0.0 1.7 0.28 0.28 0.28 64 998.4
20260504234600 63 313 1.7 4.3 0.14 0.14 0.14 80 999.8
20260504233108 72 32 0.0 3.5 0.00 0.00 0.00 61 998.8
20260504231622 73 113 1.7 11.3 0.00 0.00 0.00 54 998.3
20260504230056 73 49 0.9 4.3 0.00 0.00 0.00 56 998.4
20260504224600 73 89 0.0 6.1 0.00 0.00 0.00 57 998.4
20260504223055 74 89 0.0 6.1 0.00 0.00 0.00 56 998.3
20260504221636 75 238 1.7 7.8 0.00 0.00 0.00 56 998.3
20260504220054 74 50 0.9 7.0 0.00 0.00 0.00 57 998.6
20260504214552 74 293 1.7 7.8 0.00 0.00 0.00 55 998.8
20260504213054 76 122 0.0 4.3 0.00 0.00 0.00 51 999.1
20260504211549 78 123 0.0 8.7 0.00 0.00 0.00 46 999.1
20260504210050 77 177 0.9 6.1 0.00 0.00 0.00 45 999.1
20260504204546 77 103 0.0 6.1 0.00 0.00 0.00 47 999.1
20260504203045 77 347 0.9 3.5 0.00 0.00 0.00 44 999.3
20260504201545 77 101 1.7 5.2 0.00 0.00 0.00 44 999.3
20260504200043 79 62 1.7 6.1 0.00 0.00 0.00 41 999.3
20260504194549 78 47 0.0 4.3 0.00 0.00 0.00 42 999.5
20260504193046 78 139 0.0 7.0 0.00 0.00 0.00 43 999.6
20260504191604 78 82 0.0 4.3 0.00 0.00 0.00 43 999.8
20260504190038 77 51 0.0 5.2 0.00 0.00 0.00 44 1000.0
20260504184542 76 137 0.0 3.5 0.00 0.00 0.00 47 1000.3
20260504183031 76 11 0.0 7.8 0.00 0.00 0.00 48 1000.4
20260504181526 75 101 0.0 9.6 0.00 0.00 0.00 53 1000.7
20260504180029 75 115 0.9 5.2 0.00 0.00 0.00 52 1000.8
20260504174523 75 123 0.0 7.0 0.00 0.00 0.00 50 1000.9
20260504173019 74 288 1.7 7.0 0.00 0.00 0.00 53 1001.2
20260504171516 74 35 0.0 2.6 0.00 0.00 0.00 54 1001.3